STARLINK-31430, 59375

Orbit data source: Space-Track

STARLINK-31430, 59375 is a payload satellite owned by SpaceX/Seattle (US) in LEO that was launched on Tue, 02 Apr 2024 UTC via an FALCON 9 launch vehicle from the Air Force Western Test Range (AFWTR). Payload-class satellites include a variety of spacecraft equipped with specific instruments for various scientific and technological missions. These include communications satellites like Starlink; space stations such as the ISS; scientific satellites like the Hubble; Earth observation satellites from companies like Planet Labs, Umbra, and HawkEye 360; GPS; miniature CubeSats for education and research; and military/defense satellites.

Loading next visibility...
Identifier
59375, 2024-062B
Orbit
LEO
Country
Flag of USUS
Related business
Manufacturer
SpaceX/Seattle
Mission
Operational Commercial Communications
Bus & Motor
STARLINK V2M, Unknown motor
Mass
730 kg wet, ~700 kg dry
Launch date (UTC)
2024-04-02 (2 years ago)
Launch vehicle
FALCON 9
Launch site
Air Force Western Test Range (AFWTR)
Object type
Payload
Rocket body
Debris
Shape & HBR
Box + 2 Pan, 17.7 m
Radar Cross Section
33.884 m², Large (>1 m²)

Expand to show TLE details & history
Last TLE update: 2 days ago

TLE from 2 days ago
0 STARLINK-31430
1 59375U 24062B   26171.21628792  .00000354  00000-0  21619-4 0  9992
2 59375  53.1596 141.2226 0001351  85.9371 274.1786 15.34398093125346
Epoch: 2026-06-20T05:11Z
TLE epoch observation values (Epoch: 2026-06-20T05:11:27.276Z)
Latitude
-0.00001°
Longitude
154.92485°
Altitude
463.543 km
Speed
7.636 km/s
True Right ascension
09h 24m 53s
True Declination
0° 00' 00"
Sunlit
Object was in daylight at epoch
Visualization orbit readout
Latitude
Unknown
Longitude
Unknown
Altitude
Unknown
Speed
Unknown
Apparent Right ascension
Unknown
Apparent Declination
Unknown
Sunlit
N/A
Visualization observer readout
Local Sidereal Time
21:24:43
Azimuth
Unknown
Elevation
Unknown
Doppler factor
Unknown
Orbital elements
Apogee altitude
463.89 km
Perigee altitude
462.042 km
Semi-major axis
6,841.103 km
Eccentricity
0.00014
Inclination
53.1596°
RAAN
141.2226°
Arg. of periapsis
85.9371°
True anomaly
274.16316°
Mean anomaly
274.1786°
Eccentric anomaly
274.17088°
Mean motion
3.83578 °/min
Orbital period
93.85 mins
BSTAR
0.000021619
Loading maneuver chart data...
Computing Atmospheric mass density...
Loading historical data...
Loading historical data...
Loading historical data...
Loading historical data...
Loading historical data...
Loading historical data...
Loading historical data...

Documentation

Showing up to 5 results
|